Regional Weather Roundup
Issued by NWS

Home | Current Version | Previous Version | Text Only | Print | Product List | Glossary On
Versions: 1 2 3 4 5 6 7 8 9 10 11 12 13 14 15 16 17 18 19 20 21 22 23 24 25 26 27 28 29 30 31 32 33 34 35 36 37 38 39 40 41 42 43 44 45 46 47 48 49 50
000
ASUS42 KTBW 202017
RWRFL
FLORIDA REGIONAL WEATHER ROUNDUP
NATIONAL WEATHER SERVICE TAMPA BAY RUSKIN FL
400 PM EDT SUN AUG 20 2017

NOTE: "FAIR" INDICATES FEW OR NO CLOUDS BELOW 12,000 FEET WITH NO
SIGNIFICANT WEATHER AND/OR OBSTRUCTIONS TO VISIBILITY.

FLZ001>010-012>015-112-114-115-202100-
PANHANDLE FLORIDA

CITY           SKY/WX    TMP DP  RH WIND       PRES   REMARKS
PENSACOLA      SUNNY     93  75  55 S10       30.01F HX 104
PENSACOLA NAS  MOSUNNY   91  74  57 S8        30.00F HX 100
MILTON NAS     MOSUNNY   94  70  45 E5        30.01  HX 100
CRESTVIEW      SUNNY     98  67  36 E8        30.02F HX 102
DUKE FIELD     FAIR      96  65  36 NE5       30.00F HX  98
VALPARAISO     MOSUNNY   92  70  48 SE8       30.00F HX  98
MARY ESTHER    SUNNY     91  64  40 S8        30.00F
PANAMA CITY    FAIR      92  74  55 S7        29.99F HX 101
TYNDALL AFB    SUNNY     91  77  63 SW8       30.00F HX 104
APALACHICOLA   SUNNY     90  80  72 SE10      30.01F HX 107

STATION/POSITION SKY/WX   TEMP    WIND        PRES    WAVE   SWELL
                          AIR SEA DIR/SP/G            HT/PER HT/PER
                          (F)     (DEG/KT/KT) (MB)    (FT/S) (FT/S)
30.1N   87.6W              87 89  130/  6/  8 1016.1F   1/ 4
29.2N   88.2W              87 89  100/  6/  8 1016.5
28.8N   86.0W              85 87   80/ 10/ 10 1016.2F   1/ 8
PANAMA CITY BEAC           87     240/  8/  9 1016.5F
TOWER C                    85                 1016.9F
28.5N   84.5W              85 88   70/  6/  8 1016.5F   1

$$
FLZ011-016>038-118-127-128-134-139-239-202100-
NORTH FLORIDA

CITY           SKY/WX    TMP DP  RH WIND       PRES   REMARKS
MARIANNA       MOSUNNY   96  69  41 MISG      30.00F HX 102
TALLAHASSEE    PTSUNNY   94  70  45 SE3       29.99F THUNDER HX 100
PERRY          SUNNY     94  73  49 CALM      30.01F HX 102
LIVE OAK       SUNNY     93  73  52 CALM      30.01F HX 102
CROSS CITY     PTSUNNY   93  73  52 E5        30.05F HX 101
LAKE CITY      RAIN      82  73  74 NW10G22   30.02S
GAINESVILLE    MOSUNNY   92  75  57 E9        30.03F HX 103
WILLISTON      SUNNY     95  79  59 VRB6      30.01F HX 112
PALATKA        FAIR      91  75  59 SE12      30.01F HX 102
MAYPORT NAS    MOSUNNY   89  75  63 SE14      30.03F HX  99
JACKSONVILLE   CLOUDY    87  77  72 E13       30.01F HX  99
JAX NAS        TSTM      83  73  72 SE16      30.03R
JAX CECIL      PTSUNNY   90  75  62 N9        30.02F HX 100
FERNANDINA BEA FAIR      86  72  62 SE14      30.02F
ST AUGUSTINE   CLOUDY    89  78  70 SE18      30.04F HX 103
PALM COAST     SUNNY     86  79  79 SE10      30.03F HX  99

STATION/POSITION SKY/WX   TEMP    WIND        PRES    WAVE   SWELL
                          AIR SEA DIR/SP/G            HT/PER HT/PER
                          (F)     (DEG/KT/KT) (MB)    (FT/S) (FT/S)
SHELL POINT      NOT AVBL
KEATON BEACH               87     220/  7/  8 1015.9F
CEDAR KEY                  89     270/  5/  6 1016.5F
FERNANDINA                 90 87  110/  7/ 13 1017.6F
30.7N   81.3W                 86                N/A     2/ 8
MAYPORT                    87 87  140/ 13/ 16 1017.5F
31.4N   80.9W              85 87  160/ 10/ 10 1017.2F   2/ 8   2/ 8
ST AUGUSTINE               83 84  130/ 11/ 13 1017.3F

$$
FLZ040-043>046-052-053-057-058-063-144-202100-
INTERIOR CENTRAL FLORIDA

CITY           SKY/WX    TMP DP  RH WIND       PRES   REMARKS
OCALA          CLOUDY    91  74  57 VRB5      30.02F HX 100
THE VILLAGES     N/A     86  79  79 CALM      29.92F HX  99
LEESBURG       CLOUDY    90  76  63 SE8       30.03F HX 101
SANFORD        CLOUDY    88  76  67 E10       30.03F HX  99
ORLANDO EXEC   CLOUDY    87  78  74 E10       30.03F HX 100
ORLANDO INTL   CLOUDY    85  79  82 E10       30.03F HX  98
KISSIMMEE      PTSUNNY   87  78  74 E13       30.04F HX 100
WINTER HAVEN   LGT RAIN  85  68  56 E3        30.04F
LAKELAND       PTSUNNY   90  73  58 E3        30.03F HX  98
BARTOW         LGT RAIN  81  70  69 N10       30.04R
SEBRING        CLOUDY    76  73  90 CALM      30.04F
OKEECHOBEE     PTSUNNY   81  77  89 E7        30.04S

$$
FLZ041-047-054-059-064-141-147-202100-
EAST CENTRAL FLORIDA

CITY           SKY/WX    TMP DP  RH WIND       PRES   REMARKS
ORMOND BEACH   MOSUNNY   84  77  79 E9        30.04F
DAYTONA BEACH  CLOUDY    86  79  79 E8        30.04F HX  99
DELAND         CLOUDY    88  77  70 E12       30.03F HX 100
NEW SMYRNA BEA CLOUDY    82  77  83 E7        30.05F
JFK SPACE CTR  CLOUDY    83  81  91 SE9       30.03S HX  97
TITUSVILLE     CLOUDY    86  84  94 E7        30.05F HX 108
CAPE CANAVERAL CLOUDY    82  78  86 SE9       30.03F
PATRICK AFB    PTSUNNY   84  79  84 E12       30.04F HX  97
MELBOURNE      CLOUDY    84  78  82 E9        30.05S HX  95
VERO BEACH     CLOUDY    83  76  79 E6        30.05S
FT PIERCE      LGT RAIN  81  77  88 E7        30.04F

STATION/POSITION SKY/WX   TEMP    WIND        PRES    WAVE   SWELL
                          AIR SEA DIR/SP/G            HT/PER HT/PER
                          (F)     (DEG/KT/KT) (MB)    (FT/S) (FT/S)
28.5N   80.2W              81 84  110/ 10/ 12 1018.9F   2/ 9   2/ 9
28.9N   78.5W              78 85  200/  4/  6 1019.4R   2/ 9   2/ 9
TRIDENT PIER               82 85  110/  4/  7 1019.0F
28.4N   80.5W                 85                N/A     2/ 9
27.5N   80.2W                 84                N/A     2/ 9

$$
FLZ050-056-061-142-242-148-248-149-249-151-251-155-255-
160-260-202100-
WEST CENTRAL FLORIDA

CITY           SKY/WX    TMP DP  RH WIND       PRES   REMARKS
CRYSTAL RIVER  CLOUDY    79  72  78 W6        30.02S
INVERNESS      FAIR      91  75  59 SE6       30.02F HX 102
BROOKSVILLE    CLOUDY    92  71  50 E8        30.02F HX  98
CLEARWATER AIR PTSUNNY   88  75  66 NW6       30.01S HX  97
ST PETE CLEARW CLOUDY    92  71  50 NE5       30.01S HX  98
TAMPA INTL     CLOUDY    93  69  45 NE7       30.01F HX  98
TAMPA EXEC     CLOUDY    93  73  52 E5        30.02S HX 102
PLANT CITY     CLOUDY    91  75  59 E5        30.04S HX 102
MACDILL AFB    PTSUNNY   90  74  59 E10       30.01S HX 100
PETER O KNIGHT CLOUDY    91  73  55 E8        30.01F HX 100
ST PETERSBURG  CLOUDY    93  72  50 SE10      30.00F HX 101
SARASOTA       MOSUNNY   90  69  50 NE10      30.00S
VENICE         FAIR      91  72  52 E8G17     30.01F HX  98

STATION/POSITION SKY/WX   TEMP    WIND        PRES    WAVE   SWELL
                          AIR SEA DIR/SP/G            HT/PER HT/PER
                          (F)     (DEG/KT/KT) (MB)    (FT/S) (FT/S)
CLEARWATER BEACH           87 89  340/  7/  9 1016.8S
MIDDLE TAMPA BAY           89     100/ 10/ 13 1016.5F
VENICE                     90 90   60/  6/  8 1016.0F

$$
FLZ066-069-070-075>078-162-262-165-265-202100-
SOUTHWEST FLORIDA AND KEYS

CITY           SKY/WX    TMP DP  RH WIND       PRES   REMARKS
PUNTA GORDA    MOSUNNY   90  75  61 NE14      30.01F HX 100
FT MYERS       MOSUNNY   91  76  61 SE6       29.98F HX 103
SOUTHWEST INTL MOSUNNY   90  74  59 E9        29.99F HX  99
NAPLES         MOSUNNY   91  76  61 E5        29.97F HX 103
IMMOKALEE      FAIR      88  77  70 E9G16     30.01F HX 100
MARATHON       MOSUNNY   89  80  74 SE10G17   29.97F HX 106
KEY WEST NAS   PTSUNNY   88  80  77 E20G25    29.95F HX 104
KEY WEST INTL  SUNNY     90  78  68 E15       29.95F HX 104

STATION/POSITION SKY/WX   TEMP    WIND        PRES    WAVE   SWELL
                          AIR SEA DIR/SP/G            HT/PER HT/PER
                          (F)     (DEG/KT/KT) (MB)    (FT/S) (FT/S)
NAPLES                        90  180/  4/  8 1015.3F
DRY TORTUGAS               85     120/ 14/ 15 1014.3F
SAND KEY                   85                 1014.8F
MOLASSES REEF              86 87  120/ 12/ 14 1015.3F

$$
FLZ067-068-071>074-168-172>174-202100-
SOUTHEAST FLORIDA

CITY           SKY/WX    TMP DP  RH WIND       PRES   REMARKS
W PALM BEACH   CLOUDY    80  75  84 E6        30.04F
BOCA RATON     MOSUNNY   84  77  79 E13       30.02F
FT LAUDER-EXEC CLOUDY    85  77  77 E13       30.01F HX  95
FT LAUDERDALE  CLOUDY    87  76  69 NE12      30.00F HX  97
POMPANO BEACH  CLOUDY    86  74  67 E14       30.01F
PEMBROKE PINES CLOUDY    88  76  67 E14       30.02F HX  99
OPA LOCKA      PTSUNNY   88  78  72 E14       30.01F HX 101
MIAMI          CLOUDY    88  77  69 E10       30.01S HX 100
WEST KENDALL   PTSUNNY   91  78  65 E10G18    30.00F HX 106
HOMESTEAD      CLOUDY    89  80  73 E13       29.99F HX 106

STATION/POSITION SKY/WX   TEMP    WIND        PRES    WAVE   SWELL
                          AIR SEA DIR/SP/G            HT/PER HT/PER
                          (F)     (DEG/KT/KT) (MB)    (FT/S) (FT/S)
PORT EVERGLADES            83      60/ 13/ 15 1016.2F
VIRGINIA KEY               85 89   40/ 10/ 12 1015.7F
LAKE WORTH                        100/  8/ 10   N/A
FOWEY ROCKS                85 87  100/ 11/ 14 1016.4F
SETTLEMENT POINT           83     350/ 10/ 11 1017.5S

$$




USA.gov is the U.S. government's official web portal to all federal, state and local government web resources and services.